Location: Karcze
(52.0945°N, 22.4786°E)
Time: 18:32:49
(UTC+00:00)

A-11 Canister half - Pass Details

Date: 08 August 2021
Orbit: 1515 x 1685 km, 47.2° (Epoch: 20 September)

Event Time Altitude Azimuth Distance (km) Brightness Sun altitude
Rises 14:12:10 0° 233° (SW) 4,742 12.5 34.3°
Reaches altitude 10° 14:15:17 10° 229° (SW) 3,782 12.2 33.8°
Maximum altitude 14:24:30 53° 156° (SSE) 1,940 9.9 32.5°
Drops below altitude 10° 14:34:03 10° 84° (E) 3,915 10.7 31.1°
Sets 14:37:20 0° 80° (E) 4,920 11.1 30.6°
